Helicity
186 103 54 52 46 37 38 42 39 38 42 45 46 41 36 27 31 5 24 43 48 32 8 16 36 72 87 83 86 75 20 -5 0 -2 6 32 18 15 -1 20 38 47 28 73 122
221 192 96 54 60 42 34 37 39 42 43 37 43 42 37 24 40 48 33 48 30 35 21 7 29 69 93 87 78 80 33 17 35 33 25 44 31 39 37 43 45 52 90 119 135
199 207 191 97 66 55 36 34 33 37 47 44 37 47 48 37 11 19 65 51 15 20 33 26 36 67 94 99 79 75 47 50 46 46 42 36 42 64 56 58 49 30 45 105 132
168 203 204 177 73 62 51 30 29 31 51 49 49 52 58 16 77 28 90 96 26 22 42 43 43 51 78 93 92 74 68 72 76 65 49 34 47 33 37 15 72 56 71 108 96
193 173 206 156 143 73 65 47 26 37 54 52 57 66 41 18 32 43 24 66 60 44 31 37 45 42 42 62 86 75 59 62 70 56 48 56 25 24 8 13 50 68 69 68 65
190 190 159 152 162 54 88 60 43 44 58 53 59 70 48 47 49 71 50 40 69 57 51 54 59 48 59 70 53 83 62 60 56 47 54 40 24 62 24 48 46 63 48 65 72
201 167 175 188 187 188 84 42 46 45 50 62 62 63 57 25 47 53 90 69 80 69 67 50 64 59 59 87 90 87 68 55 47 63 59 67 23 32 23 62 38 51 61 65 68
224 144 157 156 214 213 102 75 73 61 60 76 70 55 52 46 56 12 49 88 88 92 97 75 71 88 104 82 82 87 76 77 85 70 82 54 28 39 65 28 34 47 49 59 68
119 170 92 137 176 266 142 64 106 77 85 89 86 93 35 76 50 23 43 83 71 103 118 105 102 122 97 84 97 88 113 104 89 69 76 38 48 56 34 52 55 47 43 52 58
51 122 85 87 158 355 349 102 75 131 120 135 168 121 81 84 77 84 63 79 131 113 134 130 133 100 102 91 101 94 94 87 92 61 55 55 40 45 28 31 21 23 31 50 63
7 49 88 21 50 218 292 240 246 322 180 239 169 273 183 173 81 108 122 131 162 113 130 142 118 101 36 41 57 83 106 117 73 59 60 64 58 47 36 29 18 27 49 69 76
44 35 47 -12 -23 42 211 187 289 170 224 109 178 153 203 181 135 111 84 148 155 123 152 177 109 34 71 73 76 77 106 100 80 54 40 88 83 54 39 24 20 24 39 67 77
71 39 60 -62 -94 -112 97 277 255 224 144 144 114 131 161 152 157 75 58 79 101 110 107 96 99 125 93 101 86 67 72 80 84 81 -5 38 25 2 60 50 45 47 45 40 90
89 55 40 59 -78 -188 -53 84 165 267 215 244 231 91 142 169 162 143 77 99 166 81 89 96 116 74 84 87 68 75 49 60 72 88 108 79 57 88 48 59 64 53 41 52 74
54 76 37 41 -98 -79 55 275 197 367 216 111 213 205 172 236 200 206 126 184 108 153 155 148 117 113 113 81 78 67 81 63 75 83 98 56 62 48 20 35 95 111 98 33 65
31 74 61 34 -45 -41 75 -20 226 373 125 260 297 324 282 160 193 224 258 246 171 120 171 93 146 92 66 90 74 110 101 97 97 105 91 49 70 24 16 34 62 58 39 45 21
42 46 58 37 46 -86 -104 -31 293 327 197 157 246 337 259 320 258 288 254 244 262 231 161 140 137 148 176 108 169 111 121 137 109 121 93 172 89 75 -3 19 34 25 41 48 49
35 52 14 20 29 29 -70 41 288 129 236 212 244 242 191 330 222 285 224 191 136 160 125 162 148 136 164 112 149 105 109 180 146 93 90 105 97 90 87 37 14 33 36 28 42
33 16 -24 15 18 25 -165 -179 277 236 182 329 287 209 246 214 213 277 204 202 213 219 248 151 127 97 137 171 146 217 201 103 91 140 113 116 100 112 30 85 32 33 41 35 50
-17 20 10 4 23 61 -153 -84 114 171 166 158 281 280 234 250 276 194 221 136 174 176 143 167 145 146 142 190 219 185 154 195 216 182 135 121 119 130 93 87 77 56 27 42 50
-33 -34 1 -34 57 98 -105 -108 6 233 220 207 268 309 211 254 210 155 178 158 157 200 163 180 142 122 170 159 143 250 265 271 244 178 190 129 147 79 57 53 111 73 64 30 24
-41 19 40 68 60 102 -131 -88 48 234 171 265 248 285 218 192 190 151 98 136 95 185 233 231 119 141 101 197 125 68 96 114 196 215 203 154 113 120 64 45 38 61 32 32 25
-45 6 -3 84 68 58 -100 -395 -36 86 172 318 284 186 263 237 219 156 105 173 101 100 136 266 178 147 115 143 172 164 138 120 95 140 125 132 180 80 42 41 11 -8 57 120 79
-33 1 1 35 58 46 -53 -380 -241 49 53 256 337 251 213 205 207 153 133 206 128 81 105 198 196 132 150 141 153 196 150 132 116 171 128 131 95 97 36 14 42 66 46 90 94
-34 -14 16 39 14 25 69 -23 -225 -4 45 18 252 200 206 207 132 140 210 265 223 143 99 124 95 134 71 130 72 59 130 128 113 92 124 79 66 51 16 13 49 21 27 18 13
-4 -26 23 62 107 25 36 88 90 -147 115 176 203 193 290 168 231 250 184 176 220 186 95 182 121 106 101 103 73 66 68 67 82 89 73 69 29 22 23 33 47 16 36 42 22
19 6 -7 56 146 112 69 102 -7 -88 -6 160 69 159 183 156 123 102 250 190 159 195 176 227 212 128 46 32 48 52 59 57 62 100 82 91 31 -33 11 -15 0 39 41 24 18
Wind_Speed
74 73 70 66 62 60 59 59 58 57 57 58 57 57 58 60 62 54 55 44 36 35 25 24 27 28 28 32 33 32 21 14 14 14 16 16 19 21 20 22 23 21 20 24 21
77 77 77 73 66 63 62 61 60 58 60 59 58 58 59 60 60 61 51 43 39 27 30 25 26 28 30 31 34 33 25 24 25 21 21 18 15 13 14 14 16 14 16 19 15
76 78 79 80 71 67 63 62 61 59 61 60 58 58 58 58 59 47 37 40 41 29 35 33 30 30 32 33 34 34 36 28 27 29 28 24 24 32 17 13 10 8 12 10 8
76 77 78 79 80 71 66 63 62 59 59 60 59 58 58 48 56 36 42 42 29 30 29 28 30 32 34 35 35 42 40 34 30 33 31 33 37 33 26 39 41 42 34 11 2
80 78 76 78 81 74 68 64 63 60 57 57 56 55 51 56 63 48 46 36 19 27 32 31 31 35 38 39 35 41 40 40 41 38 38 45 46 55 48 58 48 45 34 19 8
81 80 77 77 77 80 71 64 62 58 56 55 53 51 53 68 45 44 39 29 28 28 34 34 37 36 38 40 40 35 38 42 46 44 43 46 55 50 48 50 44 37 33 26 17
83 80 78 77 77 79 67 64 59 56 53 51 50 49 60 64 39 37 36 36 31 33 37 37 35 35 33 36 36 37 45 44 46 46 48 47 57 56 65 49 49 41 37 27 20
82 80 80 76 75 75 84 61 57 54 49 49 48 50 69 46 45 57 42 38 34 33 38 36 32 36 39 30 35 43 46 52 38 40 43 38 58 51 47 40 40 40 34 29 23
79 80 77 78 75 74 73 62 55 50 45 43 49 56 71 42 52 49 42 41 34 34 33 30 35 40 37 45 49 47 53 49 52 41 42 39 50 42 38 38 45 39 36 33 28
78 79 76 75 75 73 75 47 53 40 42 43 54 58 66 53 44 38 35 33 37 32 36 41 45 50 50 49 58 58 57 55 57 46 46 55 65 64 61 60 58 54 47 39 30
76 76 78 74 71 72 60 54 61 60 57 66 63 68 46 48 32 38 34 33 34 42 55 45 59 63 54 56 61 58 56 64 60 54 60 71 77 73 70 67 62 56 49 47 38
72 73 74 76 73 71 69 71 66 57 71 76 71 75 59 43 48 43 29 44 47 55 47 53 74 57 54 55 55 59 66 70 68 59 58 75 87 84 76 74 70 66 55 45 40
69 70 72 73 73 74 74 87 67 63 72 72 73 75 62 56 59 47 36 45 54 59 58 65 57 51 51 55 58 61 68 68 71 70 67 76 87 70 61 58 66 62 57 50 41
69 69 70 67 75 69 74 80 59 58 82 82 76 77 68 52 71 45 43 43 52 63 58 67 55 48 52 60 55 71 57 64 69 71 80 58 88 80 79 79 72 70 58 51 44
70 70 69 67 70 76 55 50 62 47 105 73 73 50 57 72 50 60 40 48 58 51 54 63 56 57 59 56 51 69 56 62 63 71 77 70 80 67 65 77 68 50 46 48 43
70 72 73 74 82 78 69 61 52 88 91 64 56 70 62 74 71 45 54 50 50 56 61 67 50 52 60 52 45 38 45 50 55 62 83 74 66 73 60 56 57 52 53 54 40
75 75 78 76 86 65 61 60 83 106 60 64 69 67 75 68 69 60 60 64 64 66 69 57 60 51 45 47 45 46 53 66 68 65 83 57 62 68 71 62 59 61 62 54 41
77 78 76 80 75 74 62 75 98 92 82 62 57 57 78 59 72 68 63 75 69 64 60 70 72 58 49 55 51 49 51 59 74 76 73 49 61 48 41 55 65 61 56 53 38
77 70 68 72 71 68 76 96 96 78 84 67 50 60 67 67 60 66 76 76 65 58 63 62 68 40 43 46 46 49 62 57 76 71 80 73 64 73 75 55 51 55 49 43 32
70 72 75 57 58 71 92 104 94 79 69 74 70 68 71 68 67 65 66 68 65 60 51 51 59 47 41 41 48 53 37 53 54 76 83 68 66 58 61 61 63 58 50 39 28
65 62 54 41 49 78 115 102 99 91 73 81 78 69 68 64 65 65 62 54 55 52 53 52 58 48 42 51 48 47 52 50 54 63 75 82 64 41 45 47 58 52 42 33 24
54 61 47 26 73 86 114 97 94 94 96 82 72 66 71 58 63 63 66 57 40 44 60 50 56 65 54 44 54 47 50 48 60 58 64 79 87 48 57 57 51 46 39 30 23
54 62 55 50 86 101 102 100 95 99 95 82 87 75 63 62 63 66 62 54 40 37 42 42 55 56 58 53 44 50 46 52 55 62 75 73 62 32 37 42 42 44 34 28 24
49 56 52 61 75 86 104 115 121 104 104 90 83 76 66 63 61 63 58 50 43 37 39 37 50 57 59 52 40 50 46 45 49 65 66 70 73 67 59 55 52 44 38 32 34
46 53 51 63 81 103 108 93 112 117 107 85 94 88 74 70 67 62 51 47 44 43 40 39 56 50 55 47 38 40 41 41 50 57 69 68 71 61 52 58 54 50 46 45 52
51 53 53 75 71 86 99 126 111 123 98 114 107 100 80 73 69 60 48 48 48 43 39 48 53 50 55 50 49 50 46 46 45 49 61 66 72 64 58 58 57 53 47 48 48
52 52 57 67 73 73 94 117 115 108 115 107 115 96 101 85 66 62 47 44 40 41 41 44 42 41 59 48 54 63 42 44 46 40 44 52 59 64 48 44 40 44 42 47 48
Wind_Direction
288 283 281 282 284 286 287 287 288 289 289 291 295 297 297 297 294 289 279 277 285 283 292 294 288 283 277 266 264 267 297 335 2 27 22 36 89 91 109 95 113 103 76 27 56
287 284 279 277 279 282 283 284 285 286 286 289 293 295 296 297 293 282 281 277 275 284 280 283 282 280 274 271 267 270 289 301 303 323 337 342 354 25 36 86 114 100 32 23 58
292 285 282 275 275 277 280 281 282 283 284 286 291 293 295 296 287 286 295 280 268 276 275 278 277 280 275 274 271 274 276 293 298 299 310 325 321 299 339 351 8 63 16 27 86
292 289 284 279 271 273 276 278 279 280 282 284 287 290 293 292 274 290 294 285 265 270 273 275 275 273 273 272 275 271 276 285 297 296 305 306 300 309 311 293 302 307 322 355 68
288 288 287 282 274 269 272 274 276 277 280 282 285 288 288 276 270 286 293 294 263 264 264 267 273 273 269 272 277 275 279 282 286 294 298 293 296 290 297 281 297 304 316 328 335
285 284 284 283 279 269 267 271 273 274 277 279 283 286 277 268 287 285 287 288 267 261 264 266 273 274 276 276 272 283 283 285 285 290 296 298 293 294 299 294 299 305 310 313 313
282 281 282 283 279 273 270 267 269 271 274 277 280 280 270 266 288 286 287 278 271 263 264 266 274 273 279 278 281 283 282 287 286 290 292 298 291 291 287 294 294 301 305 308 307
281 280 277 279 279 274 261 267 266 269 271 274 277 274 266 279 280 269 276 276 272 268 270 270 273 275 275 284 285 280 283 281 293 293 294 296 290 300 301 305 301 299 304 306 303
282 278 276 274 277 276 272 260 266 264 268 271 269 266 264 280 270 269 262 265 268 264 270 275 267 269 272 270 274 278 277 282 287 294 295 292 295 306 314 308 303 305 304 303 300
281 274 273 272 272 275 269 254 254 262 261 266 265 262 261 265 269 273 258 259 264 255 260 261 263 260 263 264 268 272 275 280 282 291 292 290 287 292 296 296 297 297 298 297 294
280 276 270 270 271 270 270 255 246 254 251 249 256 254 272 263 274 267 256 247 261 252 250 256 254 253 260 264 270 274 277 279 286 292 292 288 285 290 294 294 295 295 293 292 288
282 274 270 265 266 267 263 251 240 261 259 252 256 254 259 264 256 258 250 243 248 251 252 257 253 260 265 266 269 272 275 277 285 292 292 290 285 287 291 292 293 294 293 288 285
287 277 272 263 263 262 256 248 261 255 265 255 249 251 251 252 253 248 241 245 247 248 249 253 264 260 260 265 267 271 274 280 282 290 293 294 289 290 297 298 298 297 294 292 282
289 281 272 266 259 256 255 260 255 266 253 250 244 251 246 248 250 252 243 245 255 250 254 258 259 262 262 262 267 271 280 282 286 288 285 298 288 291 294 295 296 295 296 294 287
291 281 274 263 254 247 255 274 250 251 249 251 237 247 236 234 247 244 241 252 250 252 253 257 258 257 262 267 268 272 280 282 285 286 289 289 291 299 300 297 301 307 307 303 292
293 284 273 263 250 248 255 266 255 237 248 248 236 231 230 232 239 246 238 253 257 254 259 258 268 261 262 268 266 277 284 289 290 289 282 288 287 295 304 306 305 308 307 309 306
290 284 269 259 247 251 252 252 240 234 241 244 238 230 225 233 228 235 234 237 243 248 251 258 260 266 267 264 270 265 273 278 281 280 282 294 291 289 299 305 308 307 302 308 307
291 285 272 255 253 244 246 236 238 235 237 246 241 237 230 226 232 232 237 239 241 245 254 251 258 255 257 257 267 260 261 269 277 282 287 299 291 305 316 314 309 309 307 308 308
294 284 271 257 246 239 234 233 235 235 233 234 229 229 232 229 238 232 235 238 236 234 248 253 260 268 263 260 254 267 263 272 278 284 285 287 293 296 297 309 316 317 316 311 312
291 279 264 264 243 234 232 234 236 237 243 225 236 235 229 224 232 231 232 241 237 232 237 261 266 268 261 264 265 262 267 271 272 277 279 288 291 294 303 310 313 311 310 315 315
289 272 271 263 240 233 230 233 233 237 243 231 233 235 235 223 228 230 241 250 223 232 234 251 259 270 264 254 254 259 262 270 278 274 279 283 292 306 311 319 319 319 317 319 320
286 266 275 254 235 235 229 231 234 236 236 238 239 239 232 226 228 233 239 242 228 230 226 235 259 259 263 272 267 255 260 256 268 275 281 281 281 298 306 308 314 318 322 323 325
282 269 272 253 237 232 233 233 232 233 233 235 232 235 235 229 235 236 241 245 237 225 229 220 251 253 267 270 272 265 260 265 265 277 276 279 291 314 315 313 314 316 314 317 327
286 266 266 253 247 238 231 229 230 232 235 237 235 234 233 232 238 235 240 242 242 232 236 216 252 246 259 277 264 263 262 261 261 269 277 277 285 291 296 297 302 304 303 303 312
287 270 272 253 247 239 235 230 227 226 229 232 228 228 230 230 231 238 234 238 241 240 232 235 249 256 261 274 275 272 269 263 261 268 274 286 286 292 292 291 296 299 298 288 296
283 280 277 261 266 243 235 229 228 227 229 226 227 227 230 234 231 230 231 231 232 239 231 246 260 253 261 266 271 275 274 274 272 272 276 281 284 290 294 295 296 295 296 290 291
284 287 279 262 258 251 240 228 226 227 226 229 224 227 225 230 239 242 239 236 238 227 231 235 252 254 261 266 271 273 269 274 276 276 279 277 284 284 296 300 303 301 298 294 294